EW4120 Weather Reports


Display with metric or nautical units.
time (UTC)temp
F
wind
direction
speed
MPH
gust
MPH
rain 1hr
in
rain 24hr
in
rain mn
in
humidity
%
barometer
mb
20260509181517 71 315 1.0 5.0 0.00 0.00 0.00 75 1011.2
20260509180517 70 293 2.0 7.0 0.00 0.00 0.00 73 1011.2
20260509175517 70 315 1.0 4.0 0.00 0.00 0.00 76 1011.3
20260509173557 70 248 1.0 4.0 0.00 0.00 0.00 73 1011.3
20260509172517 71 315 1.0 6.0 0.00 0.00 0.00 72 1011.3
20260509171517 71 293 2.0 7.0 0.00 0.00 0.00 73 1011.3
20260509170537 71 315 1.0 4.0 0.00 0.00 0.00 74 1011.4
20260509165537 71 0.0 3.0 0.00 0.00 0.00 75 1011.6
20260509164517 70 0.0 3.0 0.00 0.00 0.00 77 1011.7
20260509163517 70 315 1.0 4.0 0.00 0.00 0.00 78 1012.0
20260509162517 70 270 1.0 5.0 0.00 0.00 0.00 79 1012.3
20260509161537 70 315 1.0 3.0 0.00 0.00 0.00 82 1012.3
20260509160557 70 315 1.0 6.0 0.00 0.00 0.00 79 1012.4
20260509155537 68 315 1.0 5.0 0.00 0.00 0.00 82 1012.5
20260509154517 67 315 1.0 6.0 0.00 0.00 0.00 82 1012.3
20260509153517 68 0.0 1.0 0.00 0.00 0.00 84 1012.2
20260509152537 67 338 1.0 4.0 0.00 0.00 0.00 84 1012.3
20260509151517 66 315 1.0 3.0 0.00 0.00 0.00 86 1012.4
20260509150537 65 0.0 2.0 0.00 0.00 0.00 88 1012.4
20260509145637 64 0.0 2.0 0.00 0.00 0.00 86 1012.5
20260509144537 64 0.0 3.0 0.00 0.00 0.00 86 1012.4
20260509143517 64 0.0 1.0 0.00 0.00 0.00 86 1012.3
20260509142537 63 0.0 4.0 0.00 0.00 0.00 87 1012.6
20260509141517 63 0.0 2.0 0.00 0.00 0.00 87 1012.6
20260509140617 63 0.0 3.0 0.00 0.00 0.00 87 1012.6
20260509135617 62 0.0 1.0 0.00 0.00 0.00 87 1012.8
20260509134537 62 0.0 0.0 0.00 0.00 0.00 88 1012.7
20260509133517 61 0.0 1.0 0.00 0.00 0.00 90 1013.0
20260509132516 60 0.0 1.0 0.00 0.00 0.00 89 1013.5
20260509131516 59 0.0 1.0 0.00 0.00 0.00 90 1013.7
20260509130557 59 0.0 2.0 0.00 0.00 0.00 92 1013.6
20260509125516 57 0.0 1.0 0.00 0.00 0.00 95 1013.7
20260509124536 56 0.0 1.0 0.00 0.00 0.00 98 1013.7
20260509123516 55 0.0 1.0 0.00 0.00 0.00 98 1013.6
20260509122516 54 0.0 0.0 0.00 0.00 0.00 98 1013.2
20260509121637 52 0.0 0.0 0.00 0.00 0.00 98 1013.4
20260509120536 51 0.0 0.0 0.00 0.00 0.00 98 1013.4
20260509115516 50 0.0 0.0 0.00 0.00 0.00 98 1013.3
20260509114536 49 0.0 0.0 0.00 0.00 0.00 97 1013.1
20260509113516 48 0.0 0.0 0.00 0.00 0.00 97 1013.0
20260509112556 48 0.0 0.0 0.00 0.00 0.00 97 1013.1
20260509111556 47 0.0 0.0 0.00 0.00 0.00 97 1013.2
20260509110516 46 0.0 0.0 0.00 0.00 0.00 97 1013.1
20260509105516 45 0.0 0.0 0.00 0.00 0.00 96 1013.1
20260509104516 44 0.0 0.0 0.00 0.00 0.00 96 1012.7
20260509103616 44 0.0 0.0 0.00 0.00 0.00 96 1012.6
20260509102617 44 0.0 0.0 0.00 0.00 0.00 95 1012.4
20260509101516 44 0.0 0.0 0.00 0.00 0.00 95 1012.4
20260509100536 44 0.0 0.0 0.00 0.00 0.00 95 1012.4
20260509095516 44 0.0 0.0 0.00 0.00 0.00 95 1012.3
20260509094636 44 0.0 0.0 0.00 0.00 0.00 95 1012.3
20260509093536 44 0.0 0.0 0.00 0.00 0.00 95 1012.3
20260509092516 45 0.0 0.0 0.00 0.00 0.00 95 1012.3
20260509091536 45 0.0 0.0 0.00 0.00 0.00 95 1012.5
20260509090536 45 0.0 0.0 0.00 0.00 0.00 95 1012.7
20260509085516 45 0.0 0.0 0.00 0.00 0.00 95 1012.8
20260509084536 45 0.0 0.0 0.00 0.00 0.00 95 1012.9
20260509083516 45 0.0 0.0 0.00 0.00 0.00 95 1012.9
20260509082516 45 0.0 0.0 0.00 0.00 0.00 94 1012.8
20260509081516 45 0.0 0.0 0.00 0.00 0.00 95 1012.9
20260509080556 45 0.0 0.0 0.00 0.00 0.00 94 1012.8
20260509075536 45 0.0 0.0 0.00 0.00 0.00 94 1013.0
20260509074637 45 0.0 0.0 0.00 0.00 0.00 94 1012.9
20260509073536 46 0.0 0.0 0.00 0.00 0.00 94 1013.0
20260509072616 46 0.0 0.0 0.00 0.00 0.00 94 1013.1
20260509071536 46 0.0 0.0 0.00 0.00 0.00 93 1013.3
20260509070516 46 0.0 0.0 0.00 0.00 0.00 93 1013.1
20260509065516 46 0.0 0.0 0.00 0.00 0.00 93 1013.4
20260509064536 47 0.0 0.0 0.00 0.00 0.00 93 1013.4
20260509063536 47 0.0 0.0 0.00 0.00 0.00 93 1013.4
20260509062536 47 0.0 0.0 0.00 0.00 0.00 93 1013.6
20260509061556 47 0.0 0.0 0.00 0.00 0.00 92 1013.8
20260509060516 47 0.0 0.0 0.00 0.00 0.00 92 1014.0
20260509055536 47 0.0 0.0 0.00 0.00 0.00 92 1014.1
20260509054516 47 0.0 0.0 0.00 0.00 0.00 92 1014.1
20260509053516 47 0.0 0.0 0.00 0.00 0.00 92 1014.1
20260509052536 48 0.0 0.0 0.00 0.00 0.00 92 1014.4
20260509051516 48 0.0 0.0 0.00 0.00 0.00 92 1014.6
20260509050536 48 0.0 0.0 0.00 0.00 0.00 92 1014.6
20260509045618 48 0.0 0.0 0.00 0.00 0.00 92 1014.7
20260509044538 48 0.0 0.0 0.00 0.00 0.00 91 1014.8
20260509043518 49 0.0 0.0 0.00 0.00 0.00 90 1014.9
20260509042538 49 0.0 0.0 0.00 0.00 0.00 90 1014.7
20260509041517 49 0.0 0.0 0.00 0.00 0.00 90 1014.7
20260509040558 49 0.0 0.0 0.00 0.00 0.00 89 1014.7
20260509035536 49 0.0 0.0 0.00 0.00 0.00 88 1014.7
20260509034536 49 0.0 0.0 0.00 0.00 0.00 88 1014.7
20260509033516 50 0.0 0.0 0.00 0.00 0.00 87 1014.6
20260509032516 50 0.0 0.0 0.00 0.00 0.00 87 1014.6
20260509031616 50 0.0 0.0 0.00 0.00 0.00 86 1014.6
20260509030516 50 0.0 0.0 0.00 0.00 0.00 85 1014.7
20260509025516 50 0.0 0.0 0.00 0.00 0.00 84 1014.9
20260509024516 50 0.0 0.0 0.00 0.00 0.00 84 1014.8
20260509022516 51 0.0 0.0 0.00 0.00 0.00 84 1014.9
20260509021636 51 0.0 0.0 0.00 0.00 0.00 84 1014.8
20260509020556 51 0.0 0.0 0.00 0.00 0.00 83 1014.8
20260509015516 51 0.0 0.0 0.00 0.00 0.00 82 1014.7
20260509014516 51 0.0 0.0 0.00 0.00 0.00 81 1014.7
20260509013516 52 0.0 0.0 0.00 0.00 0.00 80 1014.6
20260509012516 52 0.0 0.0 0.00 0.00 0.00 79 1014.6
20260509011516 53 0.0 0.0 0.00 0.00 0.00 79 1014.4
20260509010516 53 0.0 0.0 0.00 0.00 0.00 78 1014.4
20260509005536 54 0.0 0.0 0.00 0.00 0.00 77 1014.3
20260509004556 55 0.0 0.0 0.00 0.00 0.00 74 1014.2
20260509003536 56 0.0 0.0 0.00 0.00 0.00 72 1014.0
20260509002516 57 0.0 0.0 0.00 0.00 0.00 71 1014.1
20260509001518 59 0.0 0.0 0.00 0.00 0.00 70 1013.8
20260509000518 60 0.0 0.0 0.00 0.00 0.00 68 1013.9
20260508235618 61 0.0 0.0 0.00 0.00 0.00 63 1013.9
20260508234658 63 0.0 0.0 0.00 0.00 0.00 61 1013.9
20260508233536 64 0.0 0.0 0.00 0.00 0.00 58 1014.1
20260508232538 66 0.0 0.0 0.00 0.00 0.00 54 1014.1
20260508231517 67 0.0 0.0 0.00 0.00 0.00 51 1014.2
20260508230538 69 0.0 1.0 0.00 0.00 0.00 48 1014.1
20260508225517 71 0.0 1.0 0.00 0.00 0.00 43 1014.2
20260508224517 71 0.0 1.0 0.00 0.00 0.00 40 1014.2
20260508223537 70 0.0 2.0 0.00 0.00 0.00 40 1014.2
20260508222538 69 0.0 1.0 0.00 0.00 0.00 44 1014.2
20260508221517 70 315 1.0 4.0 0.00 0.00 0.00 40 1014.0
20260508220517 70 315 1.0 4.0 0.00 0.00 0.00 40 1013.9
20260508215537 71 0.0 2.0 0.00 0.00 0.00 43 1013.8
20260508214558 72 293 1.0 7.0 0.00 0.00 0.00 41 1014.1
20260508213517 72 293 1.0 4.0 0.00 0.00 0.00 42 1014.1
20260508212517 72 315 1.0 4.0 0.00 0.00 0.00 43 1014.3
20260508211517 73 0.0 2.0 0.00 0.00 0.00 39 1014.1
20260508210517 72 0.0 2.0 0.00 0.00 0.00 43 1014.1
20260508205517 73 315 1.0 3.0 0.00 0.00 0.00 40 1014.3
20260508204557 73 0.0 1.0 0.00 0.00 0.00 41 1014.3
20260508203517 72 0.0 4.0 0.00 0.00 0.00 44 1014.4
20260508202517 72 315 1.0 5.0 0.00 0.00 0.00 39 1015.0
20260508201517 72 0.0 1.0 0.00 0.00 0.00 40 1014.9
20260508200537 72 315 1.0 6.0 0.00 0.00 0.00 40 1014.9
20260508195618 72 45 1.0 3.0 0.00 0.00 0.00 44 1015.0
20260508194517 72 293 1.0 3.0 0.00 0.00 0.00 41 1015.0
20260508193517 71 0.0 2.0 0.00 0.00 0.00 37 1015.2
20260508192557 72 23 1.0 4.0 0.00 0.00 0.00 41 1015.4
20260508191537 71 315 1.0 5.0 0.00 0.00 0.00 48 1015.6
20260508190537 70 0.0 4.0 0.00 0.00 0.00 39 1015.4
20260508185517 70 315 1.0 4.0 0.00 0.00 0.00 40 1015.6
20260508184517 70 0.0 4.0 0.00 0.00 0.00 44 1015.8
20260508183537 70 293 1.0 4.0 0.00 0.00 0.00 45 1015.9
20260508182517 69 0.0 1.0 0.00 0.00 0.00 43 1015.8